Location: Coupvray
(48.8929°N, 2.7967°E)
Time: 10:39:31
(UTC+00:00)

Altair 2 - Pass Details

Date: 25 January 2021
Orbit: 837 x 949 km, 90.2° (Epoch: 26 February)

Event Time Altitude Azimuth Distance (km) Brightness Sun altitude
Rises 19:27:53 0° 224° (SW) 3,382 11.4 -28.2°
Reaches altitude 10° 19:31:05 10° 244° (WSW) 2,450 10.8 -28.7°
Maximum altitude 19:34:41 18° 285° (WNW) 1,972 10.4 -29.3°
Drops below altitude 10° 19:38:19 10° 327° (NNW) 2,472 10.5 -29.9°
Sets 19:41:35 0° 346° (NNW) 3,424 11.1 -30.4°
